User: anonymous   Login
Location: Cuzcurrita-R�o Tir�n
(42.5415°N, 2.9642°W)
Time: 03:52:51
(UTC+00:00)
Language:

SJ 16-02 - Orbit

View from above orbital plane
View from above orbital plane
View from above satellite
View from above satellite

Ground track
Ground track

The orbit data is extracted from the following two-line orbital elements,

1 41634U 16043A   21107.84307521  .00000185  00000-0  24407-4 0  9998
2 41634  75.0030 223.5323 0008432 281.1530  78.8713 14.85787854260449
Epoch (UTC): 17 April 2021 20:14:01
Eccentricity: 0.0008432
inclination: 75.0030°
perigee height: 605 km
apogee height: 617 km
right ascension of ascending node: 223.5323°
argument of perigee: 281.1530°
revolutions per day: 14.85787854
mean anomaly at epoch: 78.8713°
orbit number at epoch: 26044

The dashed part of the orbit path shows where the satellite is in the earth's shadow,  

DLR